This demonstration page uses our WeatherBlox Daily Observations layout. Learn more.

Left ArrowRight Arrow

41.86663, -103.66717

Hourly Observations for July 15, 2019

Temp ( °F °C ) Dew Point ( °F °C ) Humidity (%) Winds ( mph kmh ) Pressure ( in mb ) Visibility ( mi km ) Precip ( " mm )
12:53 am 00:53 Clear 68 20 N/A N/A SE 7 11 29.90 1013 10 16 0.00 0.00
1:53 am 01:53 Clear 64 18 N/A N/A ENE 3 6 29.87 1012 10 16 0.00 0.00
2:53 am 02:53 Clear 64 18 N/A N/A N 5 7 29.84 1011 10 16 0.00 0.00
3:53 am 03:53 Clear 66 19 N/A N/A NNW 8 13 29.82 1010 10 16 0.00 0.00
4:53 am 04:53 Clear 64 18 N/A N/A NW 9 15 29.82 1010 10 16 0.00 0.00
5:53 am 05:53 Sunny 63 17 N/A N/A WNW 6 9 29.85 1011 10 16 0.00 0.00
6:53 am 06:53 Sunny 68 20 N/A N/A ESE 7 11 29.86 1011 10 16 0.00 0.00
7:53 am 07:53 Sunny 73 23 N/A N/A NE 7 11 29.90 1012 10 16 0.00 0.00
8:53 am 08:53 Mostly Sunny 75 24 N/A N/A SW 3 6 29.93 1014 10 16 0.00 0.00
9:53 am 09:53 Sunny 81 27 N/A N/A WNW 7 11 29.92 1013 10 16 0.00 0.00
10:53 am 10:53 Sunny 82 28 N/A N/A NNE 7 11 29.95 1014 10 16 0.00 0.00
11:53 am 11:53 Sunny 84 29 N/A N/A NNE 10 17 29.95 1014 10 16 0.00 0.00
12:53 pm 12:53 Sunny 84 29 N/A N/A VRB 5 7 29.92 1013 10 16 0.00 0.00
1:53 pm 13:53 Sunny 86 30 N/A N/A ESE 9 15 29.89 1012 10 16 0.00 0.00
2:53 pm 14:53 Sunny 88 31 N/A N/A VRB 3 6 29.88 1012 10 16 0.00 0.00
3:53 pm 15:53 Sunny 90 32 N/A N/A ESE 9 15 29.83 1010 10 16 0.00 0.00
4:53 pm 16:53 Sunny 90 32 N/A N/A VRB 3 6 29.83 1010 10 16 0.00 0.00
5:53 pm 17:53 Sunny 86 30 N/A N/A E 8 13 29.84 1010 10 16 0.00 0.00
6:14 pm 18:14 Partly Cloudy with Thunderstorms 82 28 N/A N/A E 5 7 29.71 1006 10 16 0.00 0.00
6:29 pm 18:29 Mostly Cloudy with Nearby Thunderstorms 81 27 N/A N/A SW 6 9 29.71 1006 3 5 0.04 1.02
6:37 pm 18:37 Mostly Cloudy with Thunderstorms 75 24 N/A N/A W 10 17 29.80 1009 4 6 0.07 1.78
6:53 pm 18:53 Partly Cloudy with Thunderstorms 73 23 N/A N/A SSW 5 7 29.89 1012 10 16 0.07 1.78
7:08 pm 19:08 Sunny with Nearby Thunderstorms 73 23 N/A N/A NW 16 26 29.80 1009 10 16 0.00 0.00
7:26 pm 19:26 Sunny 70 21 N/A N/A N 15 24 29.80 1009 10 16 0.00 0.00
7:53 pm 19:53 Sunny 72 22 N/A N/A NNE 12 19 29.85 1011 10 16 0.00 0.00
8:53 pm 20:53 Clear 72 22 N/A N/A NNW 5 7 29.87 1011 10 16 0.00 0.00
9:53 pm 21:53 Clear 70 21 N/A N/A ENE 8 13 29.92 1013 10 16 0.00 0.00
10:53 pm 22:53 Clear 66 19 N/A N/A Calm 29.91 1013 10 16 0.00 0.00
11:53 pm 23:53 Clear 64 18 N/A N/A SSE 5 7 29.90 1013 10 16 0.00 0.00

Powered by AerisWeather